GFSSE_sfc_wetblb_057.txt.gz
Wetbulb
69.64 74.59 76.49 76.07 75.69 76.32 76.92 76.97 77.36 77.36 76.85 76.68 76.26 75.96 75.66 75.18 74.49 73.21 72.24 71.71 71.97 70.63 69.35 68.69 67.89 67.11 66.57 66.05 66.06 66.30 66.03 65.88 65.82 66.41 68.89 71.61 73.24 73.80 74.27 74.05 74.27 73.22 74.23
70.57 74.47 76.12 75.82 75.46 76.04 76.74 76.93 77.20 77.02 76.64 76.70 76.50 75.93 75.36 74.81 73.59 72.71 71.69 70.97 70.84 69.37 68.41 67.76 67.41 67.21 67.21 67.26 67.07 66.81 66.78 66.43 65.27 64.41 63.60 67.02 71.30 72.73 73.15 73.54 73.73 72.58 73.20
71.14 73.49 74.76 75.77 75.44 75.41 76.31 76.62 76.66 76.50 76.61 76.54 76.49 76.17 75.11 74.56 73.39 72.29 71.46 70.77 69.78 68.66 68.04 67.77 67.59 67.63 67.27 66.95 66.85 66.76 66.87 66.58 66.63 66.89 66.26 62.11 69.49 72.07 72.79 73.55 73.46 72.94 73.30
71.10 72.60 73.02 75.59 75.41 74.96 75.47 76.14 76.22 76.53 76.48 76.61 76.31 75.65 74.88 74.21 73.22 71.94 70.68 69.92 69.16 68.46 68.14 67.98 67.74 67.77 67.58 67.15 66.94 66.68 66.71 67.11 68.13 68.83 65.58 65.76 65.96 71.99 72.38 73.14 73.17 72.78 73.12
70.33 71.29 73.29 75.19 75.17 74.86 74.79 75.50 75.78 75.89 76.15 76.31 76.17 75.40 74.51 73.97 73.22 72.33 71.39 70.65 69.16 68.90 68.52 68.25 68.10 68.10 68.05 68.11 67.73 67.61 67.89 69.11 70.29 70.28 67.68 65.02 66.78 71.28 71.71 72.05 72.76 72.72 72.60
68.73 71.18 74.89 75.01 75.04 74.84 74.46 74.37 74.95 75.44 75.71 75.88 75.70 75.03 74.26 73.69 73.14 72.43 71.43 71.18 70.49 69.56 69.21 69.05 68.70 68.80 69.14 69.04 69.17 69.12 69.31 70.14 70.72 68.54 67.88 68.17 66.12 71.71 71.15 71.86 72.47 72.51 72.38
67.91 71.46 73.93 75.06 75.06 74.96 74.54 73.94 73.94 74.26 74.59 74.99 75.20 74.76 74.19 73.76 72.99 72.23 71.63 71.03 70.73 70.41 70.02 69.67 69.99 70.86 70.95 70.78 70.58 70.84 70.32 70.74 69.35 67.46 66.89 65.67 67.00 71.11 70.76 71.06 71.93 72.77 72.18
68.18 71.66 72.94 75.06 74.86 74.49 74.44 73.77 73.35 73.20 73.39 73.89 74.16 74.23 73.89 73.22 72.82 72.33 71.69 71.43 71.58 71.56 71.32 71.13 71.21 71.21 71.39 71.42 71.71 71.41 70.60 70.65 68.23 65.36 64.78 65.19 68.99 70.95 69.66 71.22 72.62 73.77 72.52
71.01 71.35 71.22 72.73 74.05 74.91 74.29 73.57 73.27 72.97 72.80 72.77 72.84 73.01 73.02 72.92 72.60 72.23 71.76 71.71 71.83 71.58 71.62 71.24 71.33 71.44 71.51 71.51 71.58 71.33 69.99 69.52 66.39 65.73 65.74 65.74 70.77 70.93 69.48 71.64 72.09 72.72 72.99
71.71 71.38 70.62 70.83 72.24 72.25 72.49 74.18 73.58 73.19 72.87 72.59 72.69 72.71 72.64 72.69 72.39 72.25 71.33 71.54 71.79 71.71 71.78 71.63 71.56 71.74 71.92 71.67 71.49 71.59 70.36 70.32 66.70 66.15 64.81 66.38 70.89 70.50 69.93 71.34 71.71 73.32 73.32
71.74 70.91 70.82 70.05 70.35 70.57 70.89 72.63 73.40 73.20 73.14 72.91 72.56 72.76 71.56 69.26 69.53 69.82 70.68 70.53 71.66 71.91 72.11 72.01 71.76 71.76 72.04 71.83 71.78 71.77 71.00 67.20 66.33 65.44 66.53 71.32 71.46 70.66 69.97 70.86 71.43 72.07 73.57
70.29 71.27 70.97 70.42 69.21 68.29 70.35 69.91 70.23 70.37 70.36 70.18 69.67 69.06 69.35 67.50 66.56 69.24 69.71 71.37 71.34 71.64 71.88 72.15 72.05 72.00 71.73 68.82 69.07 70.94 68.76 67.47 66.68 65.53 68.02 72.06 72.20 71.18 70.49 70.16 70.83 71.20 72.23
70.50 72.09 71.74 70.61 69.30 68.02 67.86 68.70 70.14 69.61 69.48 69.69 68.65 67.90 68.27 67.91 66.44 68.06 66.52 67.99 66.89 70.18 68.09 70.00 69.97 69.86 68.85 68.13 67.31 67.37 68.29 67.65 66.32 65.82 68.99 72.42 72.33 71.43 70.55 70.01 70.15 70.56 71.56
67.35 70.34 71.65 70.70 68.94 67.76 67.64 69.05 69.08 68.28 68.28 68.32 68.70 67.70 67.67 66.95 65.33 65.15 65.21 64.86 64.83 66.62 66.69 65.34 67.35 67.52 67.73 67.31 67.17 66.36 67.66 67.18 67.22 65.60 69.85 72.00 71.22 71.08 69.61 69.93 70.03 70.31 71.02
64.20 67.63 67.71 70.30 69.28 68.57 67.77 69.47 69.29 68.76 68.21 67.87 67.84 67.78 67.35 67.04 65.52 65.15 64.27 64.42 64.64 65.15 66.20 65.04 64.71 65.96 66.64 67.18 67.24 67.41 67.36 67.99 67.67 65.98 68.03 71.22 70.21 70.20 69.94 69.57 69.74 70.22 70.29
63.87 64.27 66.65 65.95 71.46 70.76 69.97 69.48 69.85 69.82 69.69 68.93 68.51 68.31 67.90 67.09 66.75 65.38 64.78 64.73 64.57 64.74 65.67 65.74 64.11 64.84 65.54 66.22 66.22 67.11 67.34 68.09 66.58 65.94 66.33 68.23 69.82 70.09 70.50 69.98 69.53 69.65 70.06
64.74 64.97 66.00 65.52 65.06 71.97 70.44 69.98 71.04 71.59 69.82 70.34 69.99 69.56 68.77 67.45 66.90 66.57 65.95 64.77 64.79 65.39 64.77 65.88 64.74 63.94 65.06 65.84 66.56 67.12 67.22 67.71 67.25 67.89 67.21 66.42 68.18 70.32 70.74 70.46 70.64 69.97 69.98
64.71 65.15 66.59 69.19 71.00 72.20 72.19 71.83 70.79 70.49 70.88 70.18 69.21 70.57 70.01 68.67 67.53 67.86 66.73 65.97 65.52 65.61 65.84 65.09 64.88 63.95 64.19 65.66 65.78 65.23 65.82 67.43 67.09 67.46 66.23 66.29 65.63 66.50 69.48 70.52 70.31 70.28 69.91
64.26 64.26 64.05 68.57 73.51 73.09 72.42 71.96 71.31 70.84 70.08 70.42 70.38 69.92 71.79 70.09 69.18 67.60 68.25 67.12 65.61 66.19 65.33 65.16 64.67 64.61 63.90 63.09 63.67 63.73 66.12 65.80 66.36 67.43 66.01 66.01 65.63 65.47 65.92 69.39 69.54 69.38 69.89
63.77 64.13 64.86 65.55 71.13 72.92 73.06 71.65 71.34 71.00 71.10 70.53 70.88 69.87 70.35 71.51 70.41 68.58 68.18 67.79 68.48 65.79 65.81 64.84 63.65 63.87 62.93 63.33 63.84 62.58 65.01 64.63 65.16 65.20 65.14 66.43 64.80 66.38 65.73 65.23 66.29 66.55 69.22
64.40 65.22 65.62 65.22 67.65 67.52 64.45 66.53 66.37 66.58 66.32 67.21 67.45 68.53 69.62 71.94 71.22 70.46 68.83 68.47 67.56 66.94 65.43 65.43 64.75 63.03 62.78 62.54 61.68 61.80 62.81 64.12 64.24 64.38 64.97 64.66 63.89 65.14 64.92 64.74 65.52 64.26 65.38
62.49 62.86 63.83 64.13 65.03 65.49 65.22 64.29 64.31 64.02 64.91 65.27 65.48 67.60 69.62 70.97 71.22 70.18 68.81 68.08 67.90 67.05 65.98 65.82 65.10 62.76 62.51 62.08 59.79 60.12 57.16 59.41 62.35 63.98 64.04 64.06 63.47 64.42 64.67 64.85 65.34 64.45 64.59
62.36 62.46 63.22 63.48 64.39 65.24 64.97 65.46 65.44 64.70 64.81 65.50 66.88 67.35 69.45 70.96 70.88 70.82 69.16 68.04 67.82 67.27 66.14 65.63 65.12 62.35 60.31 60.69 63.08 60.08 57.32 54.03 56.26 60.84 62.18 62.53 63.34 62.45 62.80 63.37 64.74 65.98 64.26
62.11 62.93 63.21 63.87 64.33 64.93 64.84 64.19 64.59 64.84 63.50 63.38 66.50 68.69 69.38 70.41 70.34 69.89 69.34 68.47 68.38 67.75 66.21 66.14 66.15 63.55 63.52 60.90 62.35 63.15 61.30 59.35 55.27 53.92 59.32 60.48 62.11 62.30 61.58 62.13 61.47 64.09 64.33
59.79 61.50 64.05 64.49 64.26 64.52 65.77 65.85 65.62 63.84 63.93 64.64 66.48 68.01 68.59 69.00 69.75 69.84 68.84 68.48 68.94 68.36 67.08 66.27 65.40 64.38 63.67 62.57 61.63 61.09 59.95 59.47 58.66 56.17 53.51 56.92 59.99 61.16 61.60 61.74 61.75 62.59 62.44
56.83 57.59 59.22 62.74 64.17 64.58 64.85 66.00 65.30 64.47 65.04 65.53 66.90 68.09 67.91 68.11 68.36 68.86 68.76 68.24 69.16 68.53 67.50 66.61 66.29 65.16 64.18 63.27 62.17 61.08 58.64 57.70 56.94 56.52 54.67 54.95 56.01 58.56 60.14 61.07 61.13 61.83 61.30

GFSSE_sfc_wetblb_060.txt.gz
Wetbulb
69.57 73.17 76.04 76.97 77.42 77.29 77.39 77.27 77.01 76.76 76.42 76.28 75.56 75.12 74.64 74.76 74.19 73.11 72.37 72.02 72.26 70.74 69.79 69.06 68.16 67.25 66.57 66.17 65.93 65.61 65.38 65.05 65.46 67.23 70.30 72.66 73.45 73.40 73.98 74.10 73.71 72.76 73.66
70.22 73.40 75.82 76.27 77.19 77.32 77.27 77.24 77.00 76.55 76.24 76.25 75.84 74.99 74.37 74.02 73.35 72.72 71.87 71.18 71.00 69.49 69.00 68.20 67.60 67.20 67.03 66.75 66.50 66.47 65.98 65.43 65.37 64.42 63.89 68.44 72.09 72.37 73.00 73.66 73.84 72.65 73.57
70.70 73.39 74.27 75.77 76.67 77.14 77.03 76.80 76.74 76.29 76.11 76.34 76.09 75.08 74.22 73.84 73.15 72.07 71.59 70.91 69.83 68.92 68.45 68.10 68.02 67.92 67.48 67.19 66.71 66.45 66.21 66.27 66.37 66.53 65.97 60.84 68.77 72.12 72.97 73.54 73.34 73.18 73.50
71.86 72.98 72.90 75.22 75.92 76.71 76.60 76.54 76.26 76.21 76.21 76.36 76.05 75.08 74.39 73.79 72.95 71.79 70.95 70.32 69.38 68.70 68.67 68.49 68.11 68.03 67.74 67.55 67.26 66.88 66.53 67.09 68.07 68.51 65.31 64.72 66.82 72.14 72.94 73.33 73.01 72.82 72.89
70.97 72.06 72.30 75.04 75.47 76.16 76.47 76.29 76.13 76.10 76.23 76.23 75.99 75.15 74.51 73.82 73.17 72.38 71.27 70.63 69.17 68.89 68.81 68.65 68.54 68.41 68.17 68.27 67.84 67.40 67.83 68.69 70.16 69.75 67.36 64.73 62.01 71.38 72.55 73.18 72.85 72.65 72.64
69.92 70.46 73.60 74.79 74.67 75.61 76.12 76.13 76.03 76.03 76.13 76.26 76.01 75.42 74.53 73.84 73.34 72.43 71.40 71.01 70.28 69.52 69.14 69.00 68.82 68.75 68.79 68.93 68.87 68.78 68.81 69.76 70.46 67.98 66.62 67.10 66.47 72.21 72.21 73.09 72.64 72.37 72.65
68.08 69.37 73.44 74.72 74.24 75.09 75.71 75.91 75.90 75.97 76.02 76.13 75.96 75.52 74.68 74.33 73.27 72.18 71.48 70.60 70.16 70.05 69.84 69.62 69.42 69.99 70.08 69.89 69.68 69.89 69.79 70.45 69.10 67.36 65.63 65.63 66.23 72.03 71.88 72.51 72.95 72.48 72.43
67.56 70.21 72.20 74.54 74.09 73.89 74.52 75.32 75.33 75.37 75.46 75.77 75.62 75.33 74.81 74.26 73.51 72.35 71.88 71.35 71.31 71.48 71.40 70.94 70.79 70.97 71.20 71.24 71.20 71.34 70.63 70.92 68.93 65.35 64.53 64.12 68.01 71.98 70.93 71.22 71.93 72.90 72.26
68.60 70.68 71.60 72.35 73.30 73.99 73.42 73.69 74.19 74.28 74.50 74.80 74.74 74.51 74.47 73.93 73.22 72.62 72.16 71.74 71.76 71.95 71.70 71.72 71.38 71.47 71.44 71.24 71.31 71.62 70.87 70.01 66.44 65.12 65.77 64.34 70.31 71.62 70.25 70.99 72.22 72.78 72.62
69.04 69.33 70.74 71.55 71.82 71.16 71.26 73.52 73.22 73.07 73.21 73.42 73.58 73.71 73.38 73.29 72.78 72.47 71.50 71.54 71.64 71.86 71.84 71.84 71.52 71.59 71.65 71.54 71.43 71.46 70.63 70.38 66.83 66.03 65.09 65.18 70.88 70.50 69.89 71.21 71.98 73.30 72.77
68.72 67.93 69.07 70.40 70.67 70.84 70.76 71.85 73.03 73.17 72.87 72.67 72.45 72.79 71.68 69.49 69.97 69.82 70.86 70.65 71.74 71.76 71.91 71.81 71.81 71.61 71.74 71.66 71.43 70.92 70.85 67.27 66.76 65.50 64.85 68.29 71.29 70.73 70.66 71.45 72.15 73.22 73.17
67.95 68.74 67.98 69.37 69.92 69.50 70.95 70.29 70.15 69.87 70.13 69.79 69.24 69.28 68.78 67.25 67.36 69.31 69.95 71.14 71.39 71.66 71.71 71.81 71.95 71.80 70.82 68.53 68.58 70.34 68.19 67.50 67.15 65.93 65.08 70.26 71.79 71.07 70.73 71.04 71.40 71.83 72.97
69.26 69.17 68.84 67.53 68.17 68.16 68.40 69.58 69.43 68.98 68.58 68.67 68.17 67.52 67.54 67.21 66.76 68.04 66.41 68.06 67.43 69.99 67.67 69.64 69.62 69.49 67.92 67.61 67.47 66.66 67.30 67.63 66.94 65.84 66.32 71.83 72.03 71.56 71.27 70.67 70.81 71.12 71.98
69.13 69.73 69.21 68.09 66.95 66.86 66.79 68.25 68.29 68.09 68.06 68.04 67.85 67.23 66.79 66.14 65.28 64.66 65.38 65.15 65.36 65.36 65.75 65.50 66.82 67.41 67.36 67.72 67.48 66.56 65.86 66.57 66.59 65.74 65.98 71.29 71.98 72.08 71.49 70.57 70.34 70.57 71.05
66.79 69.19 69.59 68.57 66.99 65.98 65.24 66.33 67.04 66.47 66.61 66.56 67.13 67.07 66.58 65.95 64.85 64.58 63.81 63.74 64.82 63.72 65.48 64.91 65.42 66.22 67.00 67.18 67.19 66.77 66.05 65.77 66.89 65.80 67.32 72.08 71.36 71.49 71.47 70.50 70.15 70.25 70.45
64.43 69.21 69.32 68.43 67.56 66.14 65.41 66.47 67.24 67.22 66.24 65.73 66.32 66.62 66.70 65.89 65.06 64.26 63.53 63.25 63.43 63.86 65.07 65.04 64.21 64.60 65.00 65.89 65.70 65.96 66.08 66.31 66.95 66.82 67.62 69.30 71.18 70.87 71.17 71.06 70.37 70.10 70.15
64.16 66.35 68.81 69.13 68.39 66.91 66.50 67.79 67.98 67.86 67.90 66.81 66.59 66.72 66.71 65.95 65.74 64.44 63.67 62.89 63.25 63.75 63.51 64.68 63.03 62.68 63.08 64.40 64.56 64.84 65.26 66.27 67.22 66.69 66.29 67.50 68.55 70.23 70.70 71.17 71.03 70.25 70.24
62.95 64.85 66.18 69.99 67.56 68.72 68.03 67.96 68.65 68.76 68.31 68.16 68.16 67.86 67.66 67.13 66.12 65.48 64.41 63.84 63.80 64.04 63.37 64.00 63.59 61.57 62.17 63.06 63.57 64.73 65.18 65.35 66.84 67.15 67.24 66.78 66.67 66.34 69.54 70.33 70.16 71.12 70.92
62.42 64.24 65.82 65.78 66.13 68.73 69.72 69.01 68.76 68.99 68.91 69.08 68.85 68.77 68.65 68.04 67.24 66.20 65.77 65.20 63.64 64.16 63.79 63.48 63.41 62.74 61.11 62.41 63.56 63.93 63.83 64.57 65.60 67.38 66.49 65.46 64.88 65.52 65.73 68.47 69.47 69.43 70.04
62.13 62.23 66.05 67.05 68.00 68.34 69.54 70.52 69.71 69.22 68.66 68.04 69.22 69.13 69.26 69.30 68.32 66.41 66.82 65.73 65.37 63.55 64.14 63.54 62.84 63.09 62.10 62.50 63.93 63.85 63.06 64.93 64.26 64.14 64.86 66.02 64.55 65.15 64.72 65.10 65.44 66.21 69.22
60.79 61.96 61.52 62.32 67.23 69.69 69.30 68.43 68.51 68.96 68.87 69.07 69.11 68.64 68.70 70.27 69.24 67.13 66.61 66.75 66.34 65.21 64.45 64.63 62.83 61.89 61.68 62.03 60.30 60.22 61.38 63.16 63.13 63.36 62.85 63.27 63.82 64.70 64.46 64.64 64.06 64.88 65.63
59.34 62.35 62.59 63.49 68.44 70.60 70.22 70.01 67.58 69.21 66.67 68.28 69.13 68.36 68.26 69.47 69.87 68.79 67.38 67.11 66.89 66.25 64.40 64.06 63.80 61.92 61.32 60.94 58.83 58.99 58.81 58.51 60.21 62.39 62.66 63.11 62.03 63.25 63.93 64.39 64.33 63.99 64.22
58.04 61.73 63.59 64.46 68.17 70.25 69.59 67.60 62.66 62.91 62.76 63.04 63.58 63.75 64.96 68.35 70.45 69.46 68.53 67.93 67.16 66.91 65.47 64.23 63.99 62.34 60.29 60.43 62.05 60.88 57.67 56.39 54.80 58.57 60.63 61.30 61.73 61.48 62.15 62.50 63.64 64.23 64.00
58.24 61.41 63.35 64.09 66.31 67.33 65.69 65.12 63.38 61.21 59.69 61.04 60.82 64.66 65.74 68.96 69.82 69.71 68.73 67.95 67.30 66.37 65.25 64.94 64.82 62.14 61.22 60.82 62.98 62.98 60.53 58.41 56.27 53.59 57.87 59.33 60.67 60.91 61.08 60.80 61.68 63.36 63.65
56.49 59.43 60.79 61.68 61.86 63.41 63.21 62.75 62.70 59.45 60.50 61.15 63.09 65.28 66.09 67.45 69.36 69.57 68.60 67.56 67.27 66.59 65.66 65.53 63.96 63.03 64.60 62.84 62.27 59.82 58.94 59.29 58.91 54.74 52.30 55.36 58.40 59.70 60.54 60.52 59.92 61.43 62.45
56.45 59.85 61.34 61.38 61.45 61.69 62.06 61.68 60.68 60.37 61.27 62.08 62.76 64.25 65.60 66.37 67.63 68.53 68.47 67.93 67.61 66.58 66.38 66.71 64.58 63.48 62.92 62.05 60.89 59.89 60.70 57.85 56.21 55.45 53.49 54.02 54.44 57.11 58.72 59.72 60.00 60.67 60.32

GFSSE_sfc_wetblb_063.txt.gz
Wetbulb
67.40 71.93 77.11 77.49 77.29 77.06 76.93 76.88 76.43 76.18 75.95 75.83 75.31 75.21 75.16 75.03 74.78 74.44 73.84 73.46 72.93 71.72 70.61 69.65 68.62 67.62 66.87 66.59 66.28 65.75 65.58 65.82 67.11 69.52 72.07 72.96 73.18 73.27 74.08 73.88 73.33 72.40 72.93
68.42 72.71 76.87 77.28 77.24 77.11 76.89 76.78 76.30 76.12 75.97 75.70 75.53 75.11 74.70 74.56 73.74 73.61 72.76 71.79 71.13 70.08 69.51 68.56 67.66 67.11 66.78 66.32 66.21 66.05 65.61 65.31 64.72 64.28 66.05 70.59 72.15 72.04 72.72 73.61 73.55 72.27 73.33
67.81 72.39 75.31 77.00 77.21 76.94 76.58 76.35 76.09 75.74 75.91 75.76 75.32 74.85 74.38 74.28 73.17 72.36 72.09 71.22 70.20 69.65 68.97 68.40 68.07 67.97 67.67 67.34 67.00 66.72 66.53 66.50 66.40 66.06 65.33 60.23 68.53 71.73 72.41 73.34 73.63 72.95 72.97
68.95 71.58 73.25 76.65 76.90 76.86 76.50 76.12 75.72 75.62 75.80 75.85 75.36 74.70 74.06 73.86 73.14 71.56 71.36 70.78 69.78 69.11 68.86 68.73 68.54 68.00 67.56 67.33 67.06 66.82 66.93 67.45 68.02 68.50 64.40 63.73 65.68 71.57 72.56 72.95 73.13 72.49 72.41
69.02 71.04 72.37 76.10 76.47 76.70 76.52 76.12 75.71 75.66 75.76 75.85 75.54 74.95 74.16 73.61 73.27 72.27 71.67 71.27 69.68 69.35 69.16 68.86 68.51 68.16 67.98 67.60 67.33 67.03 67.78 68.66 69.77 68.93 66.81 65.14 62.05 70.85 72.59 72.72 72.74 72.55 72.31
69.12 70.12 73.81 75.43 75.93 76.35 76.47 76.12 75.66 75.74 75.71 75.80 75.64 75.12 74.33 73.71 73.22 72.25 71.70 71.36 70.64 69.57 69.33 69.16 68.70 68.37 68.34 68.33 68.06 68.18 68.62 69.39 70.00 67.14 65.80 65.94 62.83 71.20 72.36 72.76 72.48 72.46 72.37
68.60 68.97 72.60 74.83 75.48 76.00 76.26 76.17 75.87 75.84 75.68 75.83 75.85 75.19 74.55 74.23 73.24 72.15 71.65 70.88 70.42 69.99 69.65 69.54 69.17 69.65 69.60 69.35 68.98 69.39 69.50 70.38 68.67 65.89 64.13 64.28 65.40 71.88 72.04 72.88 72.52 72.39 72.15
67.46 68.62 70.99 74.31 74.91 75.33 75.73 75.74 75.50 75.50 75.57 75.75 75.69 75.42 74.95 74.53 73.43 72.28 71.91 71.27 71.28 71.29 70.94 70.25 70.71 70.64 70.63 70.53 70.08 70.18 70.23 70.55 68.38 65.02 64.12 63.49 66.84 71.51 71.72 72.66 72.82 72.45 72.23
66.78 68.74 69.94 71.31 73.19 75.16 75.07 75.33 75.44 75.30 75.28 75.33 75.33 75.05 74.88 74.44 73.73 72.91 72.13 71.71 71.55 71.85 71.75 71.65 71.33 71.19 71.09 70.60 70.36 70.67 70.74 70.60 66.02 65.15 65.90 64.01 67.89 70.89 70.92 71.41 71.41 72.57 72.47
66.02 68.01 68.77 70.03 70.82 70.98 72.36 75.20 75.20 75.15 75.11 74.91 74.93 74.84 74.44 74.18 73.72 72.99 71.78 71.73 71.46 71.78 71.81 71.81 71.66 71.41 71.39 71.24 71.23 70.95 70.64 70.60 66.33 65.93 65.29 64.05 67.96 70.39 70.91 71.26 71.75 72.77 72.35
66.31 66.69 68.75 69.49 69.74 69.18 69.02 72.29 74.44 74.98 75.08 74.81 74.63 74.49 73.20 71.66 70.97 70.36 70.83 70.62 71.61 71.59 71.88 71.90 71.78 71.53 71.53 71.09 70.87 70.59 70.50 67.06 66.46 65.90 64.89 67.07 69.15 70.11 70.65 71.59 71.77 72.30 72.89
63.98 65.75 67.81 68.93 69.31 68.55 69.52 68.72 69.54 69.77 71.12 71.39 71.23 71.22 69.84 67.36 67.20 68.82 70.08 70.80 71.26 71.49 71.78 71.75 71.77 71.67 70.43 67.63 67.85 70.01 67.34 67.04 67.02 66.35 65.40 68.38 69.99 70.50 71.02 71.84 71.30 71.33 72.45
65.19 66.50 67.35 68.51 68.57 68.17 67.64 68.24 69.09 67.72 67.53 67.69 67.09 67.36 66.97 66.73 66.62 67.98 66.49 67.61 66.82 70.28 67.22 69.23 68.97 68.73 66.89 66.66 66.63 66.23 66.39 66.32 66.43 66.67 67.00 69.35 71.39 71.37 71.48 71.07 70.70 71.24 72.07
65.09 65.82 66.55 67.82 67.97 67.71 66.85 68.25 68.03 67.48 66.95 66.75 66.73 66.08 66.20 65.34 64.71 64.75 65.43 65.10 65.32 64.85 64.92 64.99 65.81 66.18 66.52 66.48 66.46 66.03 65.85 65.31 65.68 65.97 66.13 69.74 71.15 71.73 71.67 72.58 70.90 70.96 71.17
65.56 66.34 66.61 66.43 66.55 67.17 65.64 66.99 66.69 66.51 66.64 66.55 66.33 66.06 65.79 65.06 64.06 63.85 64.15 64.10 64.04 63.54 63.63 63.72 64.04 65.23 65.43 66.23 66.84 66.52 66.01 65.08 65.08 65.68 65.24 69.19 70.99 71.83 72.22 72.64 71.08 70.73 70.41
65.43 67.83 68.21 67.07 65.78 65.41 64.82 64.95 65.29 65.58 65.07 65.33 65.83 65.80 65.84 64.79 63.68 63.55 62.37 63.21 62.89 63.16 63.41 64.11 63.64 63.85 64.44 65.16 65.84 66.22 65.53 65.19 65.26 65.84 66.02 66.68 70.98 71.23 71.11 71.58 71.44 70.64 70.43
61.76 68.00 68.65 68.01 66.61 63.99 63.38 63.54 63.94 64.83 64.87 64.53 64.63 65.09 65.68 64.61 63.37 62.82 62.17 61.64 62.65 62.93 62.65 63.46 62.88 62.47 62.32 63.63 64.43 64.34 64.29 64.58 65.48 65.93 66.49 67.45 68.84 71.12 70.63 70.45 70.84 70.69 70.45
61.34 65.48 68.97 70.11 67.68 65.71 64.69 64.74 65.33 65.87 65.75 65.65 65.34 65.37 65.65 65.24 64.44 63.09 62.19 61.71 62.01 62.29 62.75 63.05 62.08 60.88 61.52 61.67 62.59 63.17 63.36 63.81 64.77 66.33 67.10 66.91 67.07 67.11 68.91 70.43 69.99 70.21 70.99
61.05 62.38 65.22 68.04 67.76 66.58 66.00 65.91 66.53 66.94 67.19 67.04 66.83 66.47 66.50 66.35 65.75 64.71 63.96 63.19 62.35 62.63 62.35 62.62 61.87 61.88 60.08 60.56 61.94 62.27 62.80 63.26 63.97 66.06 66.38 66.04 66.31 66.42 64.93 67.75 69.49 69.50 70.23
59.96 61.55 62.75 66.03 67.49 67.61 67.48 67.51 67.41 67.65 67.97 67.60 67.67 67.71 67.75 67.38 66.97 65.15 65.10 64.21 62.97 62.53 62.36 61.79 61.75 61.76 60.90 61.03 62.36 62.72 62.00 62.72 65.14 64.35 64.46 65.09 64.23 64.60 64.43 64.14 64.42 66.03 69.14
58.88 58.84 61.16 62.17 63.53 66.02 67.82 67.36 66.97 67.34 68.13 68.35 68.64 68.62 68.38 68.42 67.69 65.61 65.65 64.87 64.07 62.62 63.02 62.86 61.89 61.09 60.62 61.22 59.87 59.07 60.01 61.96 62.73 62.98 62.63 62.80 63.35 64.07 63.76 63.62 63.49 63.80 64.74
55.53 59.23 60.82 62.32 63.92 64.54 66.20 68.11 66.78 68.22 68.03 68.95 68.79 67.83 68.06 68.53 68.34 66.99 65.86 65.57 65.02 64.29 62.52 63.17 62.57 60.46 61.42 62.24 60.56 59.14 56.01 57.87 59.36 61.48 62.32 61.89 61.76 62.56 63.46 63.83 63.52 63.58 63.42
52.45 54.86 59.60 60.52 61.93 63.74 67.23 65.40 62.60 63.80 63.23 64.33 64.23 65.35 66.75 67.51 68.82 68.39 66.93 65.93 65.77 65.67 64.09 63.55 63.33 61.96 60.96 61.71 62.03 60.92 57.70 56.03 56.85 57.30 59.25 60.62 60.85 60.76 61.25 62.08 63.02 63.53 63.32
49.36 51.51 57.06 60.74 61.54 62.74 67.42 67.11 65.29 65.81 65.73 63.62 64.23 64.34 64.95 65.39 66.85 68.74 68.10 66.62 66.40 66.28 64.81 64.44 64.15 62.77 62.69 61.63 62.47 63.20 61.76 59.83 55.41 53.49 56.59 57.89 59.25 60.09 59.77 60.28 61.54 62.29 62.72
49.36 50.43 53.52 59.62 61.58 63.88 67.17 68.14 66.66 60.76 63.14 60.27 61.62 62.14 62.75 64.13 67.05 68.54 68.12 67.56 66.89 66.40 65.59 65.10 63.39 62.14 63.21 62.89 62.61 60.68 60.68 59.77 57.17 56.98 53.11 54.42 57.47 58.39 59.56 59.82 60.16 60.26 61.88
51.69 48.78 53.19 56.94 60.63 62.29 64.79 65.55 65.03 64.72 61.36 60.11 60.82 61.88 62.72 64.54 66.38 68.01 67.79 67.40 67.16 66.57 65.67 65.27 64.24 63.26 62.24 61.71 62.44 61.91 61.20 58.67 56.13 54.97 52.91 52.86 53.94 55.71 57.53 58.80 59.12 59.04 59.82

GFSSE_sfc_wetblb_069.txt.gz
Wetbulb
69.12 75.50 77.55 77.37 77.00 76.64 76.49 77.00 77.29 77.44 77.39 77.37 77.35 77.07 76.87 76.96 77.04 76.71 76.09 75.64 75.24 74.53 73.98 72.95 71.69 70.42 69.42 68.69 68.01 68.13 68.99 70.35 71.95 73.37 73.44 73.52 73.90 73.95 73.68 73.77 72.99 72.79 72.24
70.35 75.82 76.17 76.92 77.02 76.67 76.31 76.24 76.59 76.86 76.88 77.16 77.36 77.11 76.96 76.81 76.69 76.26 75.59 74.84 74.21 73.45 72.05 70.56 69.40 68.52 67.93 67.19 66.42 66.31 65.98 66.22 66.76 68.67 71.09 72.36 72.62 73.14 73.36 73.02 72.48 73.16 72.63
71.35 75.89 76.34 76.67 76.92 76.67 76.12 75.66 75.49 75.81 76.30 76.60 76.88 76.86 76.55 76.36 76.11 75.66 75.14 74.01 72.82 71.68 70.43 69.36 68.59 68.40 68.12 67.97 67.77 67.48 67.11 66.91 66.68 66.83 66.89 71.00 70.81 72.16 72.54 73.24 72.84 72.50 72.64
73.04 76.56 76.54 76.49 76.69 76.64 76.07 75.62 75.11 75.14 75.46 75.86 75.93 76.08 75.93 75.61 75.29 74.69 73.82 72.74 71.73 70.62 69.74 69.11 69.01 69.12 68.77 68.45 68.05 67.97 68.31 68.97 70.20 68.77 68.17 69.29 70.10 71.73 72.36 72.94 72.88 72.04 72.29
72.86 75.37 76.59 76.59 76.52 76.64 76.29 75.81 75.29 75.04 74.96 75.16 75.29 75.19 75.09 74.81 74.49 73.74 73.27 72.90 71.97 70.54 69.94 69.86 69.59 69.21 68.91 68.72 68.55 69.11 69.53 70.51 71.18 70.18 70.51 70.96 70.74 70.89 72.21 72.40 73.09 72.48 71.99
71.84 74.39 76.40 76.34 76.56 76.52 76.37 75.84 75.48 75.48 75.41 75.21 75.21 75.01 74.89 74.66 73.99 73.34 72.82 72.73 72.29 71.16 70.54 70.40 69.96 69.58 69.44 69.02 69.28 69.61 70.07 70.63 70.21 70.87 71.25 70.01 70.50 69.29 71.59 72.46 72.36 72.36 72.11
71.07 73.53 75.99 76.43 76.46 76.56 76.49 76.06 75.68 75.45 75.25 75.21 75.23 75.11 74.99 74.44 73.74 73.05 72.87 72.76 72.39 72.33 71.44 70.58 70.33 70.80 70.66 69.68 69.73 70.03 70.23 70.39 70.02 70.65 70.51 70.22 70.66 68.09 71.59 71.98 72.43 72.50 72.29
71.12 73.00 74.99 76.32 76.33 76.16 76.09 75.69 75.41 75.18 75.12 75.13 75.03 74.98 74.86 74.36 73.59 72.85 72.90 72.84 72.50 72.46 72.15 71.67 71.39 71.19 71.32 70.55 70.03 70.16 70.33 69.96 69.66 69.82 69.41 70.97 67.89 68.13 71.44 71.59 72.41 72.15 72.47
71.07 71.97 74.48 75.52 76.42 76.23 75.93 75.67 75.42 75.29 75.19 75.14 74.92 74.67 74.70 74.35 73.58 73.00 72.63 72.75 72.64 72.29 72.06 72.01 71.61 71.39 71.24 70.65 70.28 70.33 70.24 70.45 69.46 70.00 68.69 69.46 67.54 68.63 70.98 71.38 71.55 72.03 72.05
69.85 70.66 73.23 74.46 74.80 75.27 75.56 75.96 75.55 75.42 75.40 75.32 75.10 74.95 74.58 74.36 73.87 73.16 72.00 72.13 72.62 72.45 72.30 72.10 71.81 71.44 71.34 71.23 70.80 70.36 70.48 70.58 70.12 69.61 69.89 70.38 68.13 69.00 70.67 71.29 71.38 71.14 71.35
67.99 69.99 72.00 73.09 73.76 74.34 74.34 75.26 75.55 75.33 75.34 75.46 75.55 75.09 74.43 73.87 73.85 73.19 71.77 71.97 72.48 72.63 72.53 72.53 72.18 71.70 71.33 70.63 70.31 70.26 70.09 70.27 69.89 69.91 70.59 68.21 68.69 69.53 70.38 71.22 71.77 71.53 71.34
66.16 68.29 70.48 72.28 73.17 73.59 73.24 74.77 74.98 74.87 75.00 75.20 75.07 75.22 74.71 74.16 74.04 72.68 72.66 71.64 72.33 72.35 72.47 72.57 72.52 72.02 70.67 69.51 69.98 70.29 69.77 69.94 69.95 69.82 70.57 68.75 69.60 70.03 70.97 71.28 72.54 71.78 71.26
66.34 67.61 69.31 71.40 72.57 72.36 71.83 73.11 73.83 74.16 74.50 74.81 74.99 75.21 74.84 73.80 73.63 73.04 72.04 72.09 71.61 71.58 69.77 70.78 70.77 69.96 69.31 69.45 69.04 69.24 69.45 70.01 69.53 69.47 70.01 69.53 70.14 70.43 71.07 72.12 72.00 72.19 71.28
66.11 66.79 68.97 70.51 71.31 71.80 71.38 71.41 72.46 72.63 73.52 73.24 73.49 74.41 73.76 72.53 72.26 71.90 71.15 70.90 71.27 69.79 69.81 69.75 69.24 69.58 69.80 69.49 69.12 68.80 68.91 68.90 68.52 68.86 69.89 69.45 70.20 71.07 71.75 71.82 72.02 72.34 71.52
67.01 67.01 67.94 69.90 70.88 71.01 71.26 70.33 70.99 71.87 71.54 72.19 72.63 73.21 72.86 71.68 71.16 70.89 70.56 69.92 69.15 69.27 68.87 68.84 68.87 69.24 69.03 69.30 68.87 68.36 67.86 68.32 68.77 68.60 68.70 68.98 69.47 70.47 71.54 72.17 72.06 72.34 71.90
65.75 68.01 68.62 69.63 71.15 70.72 70.73 71.23 70.30 70.72 70.59 70.45 70.88 70.88 71.77 71.16 70.66 69.23 69.15 68.69 68.50 68.61 68.47 68.37 68.20 68.37 68.37 68.34 68.21 68.65 68.40 68.55 68.83 68.85 68.21 68.71 69.32 69.83 70.65 71.61 72.24 71.83 71.91
64.26 66.16 69.21 69.55 69.87 69.89 69.28 70.57 69.70 69.20 69.10 68.77 68.97 70.00 70.03 70.17 69.69 68.90 67.93 67.72 68.04 68.89 69.28 68.77 68.50 68.36 67.74 67.94 67.94 68.54 68.94 69.42 69.41 69.53 69.35 68.88 70.08 69.70 70.42 71.48 71.88 71.91 71.62
62.04 64.20 66.82 69.82 69.45 70.56 69.03 68.43 68.85 69.31 68.87 68.44 68.37 68.80 69.11 69.40 69.34 68.64 67.44 67.13 68.00 68.37 67.85 67.54 67.51 66.91 67.12 67.51 67.51 68.26 68.59 69.40 69.61 69.76 69.73 70.05 70.95 71.53 71.31 70.99 71.79 71.50 71.65
60.43 62.43 62.95 68.01 71.00 69.95 69.26 68.61 68.57 69.02 68.80 68.83 68.54 68.13 68.76 68.97 68.74 68.80 68.60 66.98 68.31 67.19 66.62 67.42 67.67 67.56 67.16 67.51 67.37 67.94 68.52 68.86 69.72 69.38 69.91 70.72 71.54 71.69 72.01 71.57 70.26 70.38 70.97
59.47 61.04 61.54 65.34 70.04 72.52 70.96 68.99 67.59 67.67 67.53 68.34 68.21 68.13 68.39 68.80 68.53 68.69 67.80 67.24 67.05 66.30 66.34 67.16 68.21 68.29 67.99 68.10 66.82 66.97 68.52 68.93 69.78 69.72 70.13 70.35 70.79 71.44 72.26 72.10 71.84 70.65 69.15
59.10 59.77 60.32 61.29 64.97 70.39 70.17 69.17 68.13 66.60 67.67 67.30 68.40 68.86 68.67 68.69 68.13 68.48 65.55 66.09 67.06 65.39 67.29 68.95 68.51 68.13 67.02 67.88 66.56 66.92 67.95 69.25 69.53 69.82 70.48 70.54 70.75 71.12 71.01 71.32 71.11 70.72 70.40
58.11 59.58 60.09 60.86 62.10 65.29 69.26 70.64 70.55 70.34 70.04 69.46 69.56 70.13 69.33 69.23 70.28 69.89 66.50 66.54 67.19 67.48 69.55 69.18 68.58 67.40 67.33 67.62 66.51 66.97 64.69 66.67 68.36 69.36 69.74 69.87 70.78 70.78 70.23 70.42 70.50 70.44 70.59
56.82 58.31 58.65 59.45 60.90 62.11 65.39 69.04 71.01 71.24 70.99 70.07 70.13 69.61 70.42 70.02 69.88 70.37 67.55 68.16 70.11 70.17 69.41 69.50 68.91 68.23 66.45 66.73 68.57 67.64 64.02 62.32 66.03 67.21 68.29 68.87 69.44 69.18 69.69 69.81 69.87 69.95 70.44
55.01 56.29 57.75 59.78 59.85 61.03 62.84 65.91 69.79 67.91 67.89 69.84 70.77 71.19 71.71 71.67 71.79 70.67 70.19 70.18 70.92 70.43 70.81 69.86 69.52 68.79 68.74 67.34 67.02 67.96 67.85 67.83 63.29 62.56 65.98 67.18 68.37 68.40 69.03 69.02 69.01 69.61 69.75
54.85 55.22 56.71 58.80 59.45 60.39 61.18 63.08 65.07 68.46 69.33 70.65 71.34 73.41 73.00 72.99 72.31 71.49 72.08 71.70 71.24 71.09 71.78 70.38 68.86 67.72 68.28 69.12 67.96 67.03 66.49 66.48 66.41 64.30 62.55 64.13 66.08 67.55 68.09 68.16 68.75 68.90 69.04
53.60 54.34 55.69 57.12 58.94 59.81 59.44 60.81 64.22 66.69 69.03 68.67 69.87 69.64 70.44 70.72 71.82 73.10 72.78 72.77 72.40 71.75 70.92 69.96 69.84 69.45 69.30 70.06 69.33 67.26 66.22 64.10 64.97 64.54 62.42 64.68 63.99 66.42 66.92 67.51 67.74 68.22 68.92

GFSSE_sfc_wetblb_072.txt.gz
Wetbulb
70.64 76.58 77.23 77.35 77.15 77.45 78.13 78.09 77.76 77.53 77.15 77.18 76.98 76.93 76.72 76.85 76.95 76.90 76.40 75.90 75.65 75.26 74.54 73.75 72.97 72.07 71.10 69.86 69.13 69.70 71.02 72.13 73.25 73.75 73.95 74.04 74.11 74.02 74.05 73.34 72.50 73.16 72.39
72.20 76.77 76.98 77.10 76.95 77.33 77.96 78.01 77.66 77.48 77.25 77.10 77.05 76.98 76.97 76.99 77.10 76.82 76.25 75.50 75.09 74.25 73.13 71.69 70.32 69.23 68.32 67.17 66.54 66.61 67.20 68.29 69.91 72.05 72.59 73.17 73.69 73.88 73.20 73.04 73.12 72.97 72.32
72.92 76.82 76.97 76.85 76.88 76.83 77.28 77.55 77.42 77.22 77.30 77.22 77.25 77.02 77.10 77.04 76.87 76.44 75.89 74.79 74.14 72.73 71.32 70.16 69.11 68.69 67.89 67.45 67.48 66.79 66.35 66.47 67.29 67.46 68.55 71.85 71.74 72.75 72.62 73.11 72.79 72.45 72.08
73.94 76.58 76.36 76.45 76.57 76.55 76.72 76.92 76.99 77.11 77.22 77.32 77.19 77.04 76.99 76.77 76.47 75.79 74.97 74.18 73.04 71.68 70.49 69.65 69.13 69.02 68.87 68.57 68.14 67.85 67.63 67.71 68.42 67.68 70.12 70.56 70.82 71.95 72.52 73.49 72.81 72.00 71.77
74.59 76.16 76.22 76.17 76.35 76.47 76.25 76.29 76.43 76.68 76.76 76.98 77.11 76.91 76.74 76.36 75.79 75.21 74.67 73.94 72.65 71.00 70.26 69.85 69.86 69.73 69.32 69.02 68.81 69.02 69.41 70.64 70.72 70.84 71.38 72.11 73.07 71.70 72.53 72.83 72.77 72.61 71.57
74.08 75.69 76.77 76.10 76.25 76.55 76.32 75.92 75.74 76.14 76.31 76.53 76.61 76.54 76.22 75.64 74.96 74.52 74.10 73.61 73.05 71.76 70.76 70.60 70.59 70.10 69.81 69.21 69.52 69.72 70.09 70.90 70.73 71.59 72.38 70.78 71.76 71.53 71.74 72.13 72.10 72.20 71.67
73.19 74.58 77.63 76.07 76.37 76.70 76.65 76.17 75.42 75.52 75.54 75.59 75.92 75.77 75.49 74.94 74.47 74.12 73.60 73.41 73.02 72.64 72.05 70.97 70.89 71.43 71.19 70.09 70.16 70.30 70.33 70.62 71.79 72.25 72.51 72.88 72.11 70.68 71.33 72.03 72.23 72.09 71.83
72.21 74.15 76.87 76.62 76.24 76.24 76.17 75.99 75.61 75.14 75.06 75.14 75.04 74.97 74.87 74.67 74.14 73.60 73.30 73.29 72.95 72.80 72.79 72.28 71.97 71.60 71.61 71.06 70.41 70.47 70.42 70.67 70.20 70.63 71.07 72.27 69.14 68.66 71.22 71.20 72.21 71.86 71.88
72.18 73.52 76.03 76.78 77.11 76.31 76.03 75.81 75.53 75.42 75.15 75.03 74.88 74.71 74.73 74.41 73.87 73.30 73.18 73.22 72.99 72.91 72.73 72.46 72.03 71.91 71.67 70.97 70.42 70.63 70.53 70.68 71.27 70.21 69.40 69.98 69.06 68.88 71.07 71.34 71.80 71.57 71.50
71.76 72.67 74.65 75.67 76.11 76.56 76.45 76.06 75.55 75.50 75.27 75.25 75.04 75.02 74.72 74.55 73.96 73.20 72.70 72.78 73.10 73.15 72.85 72.58 72.23 71.99 71.67 71.27 70.80 70.63 70.50 70.74 70.13 70.20 70.24 71.49 68.80 69.03 70.72 71.76 71.44 71.60 70.80
69.95 71.89 73.58 73.58 74.47 75.32 74.84 76.06 75.74 75.61 75.55 75.58 75.37 75.24 74.43 73.34 73.72 73.12 71.71 72.74 73.10 73.23 72.95 72.80 72.51 72.06 71.52 70.56 70.68 70.46 70.45 69.73 70.48 70.03 70.42 69.56 68.36 69.62 70.78 71.83 71.64 71.80 70.83
67.94 69.86 71.85 73.12 73.61 74.08 72.88 75.17 75.80 75.50 75.64 75.04 74.67 74.95 74.28 73.46 73.95 72.69 73.03 72.80 72.75 72.95 73.10 72.95 72.73 72.06 70.88 69.17 70.32 70.12 69.64 69.35 70.25 69.67 70.09 70.24 69.31 70.04 71.05 71.49 71.80 71.79 71.50
67.97 69.17 70.95 73.46 74.43 74.04 72.98 73.51 74.41 74.06 74.32 74.57 75.14 75.52 75.55 74.02 74.42 73.73 73.11 73.31 72.44 71.86 70.49 71.36 71.25 70.57 69.80 69.59 69.14 69.49 69.44 69.71 69.48 69.14 71.25 70.30 70.13 70.75 71.23 71.78 72.15 71.90 72.04
68.61 68.34 69.66 72.50 74.18 74.95 73.68 73.20 73.88 72.97 73.84 73.88 74.94 76.34 75.54 74.45 74.37 73.66 71.94 71.88 72.39 71.20 71.20 70.37 69.94 70.86 70.49 70.35 69.96 68.94 68.96 68.75 68.14 68.54 70.52 70.58 70.56 71.25 71.95 71.84 72.38 72.47 72.59
67.49 69.84 69.66 71.28 73.19 73.87 74.19 72.80 73.50 73.94 73.41 74.45 74.21 75.76 75.25 74.14 73.38 73.26 72.58 71.82 71.26 70.77 69.94 69.92 69.74 69.97 70.34 70.21 69.88 69.29 68.89 68.98 69.02 68.38 68.25 71.16 70.58 70.34 71.27 72.25 72.40 72.40 72.32
67.64 67.67 69.71 70.88 73.15 73.34 73.81 74.20 72.97 73.67 73.78 73.54 73.55 73.73 75.14 74.14 73.83 72.40 72.25 71.25 70.35 69.91 69.44 69.22 69.21 69.66 70.02 69.58 69.80 70.52 69.93 69.86 69.68 69.76 69.85 70.35 70.24 70.52 70.51 71.22 72.16 72.45 72.59
63.65 65.53 67.99 70.68 72.39 73.79 72.79 72.93 73.09 72.06 71.83 71.49 71.78 73.66 73.91 74.38 73.75 73.24 70.78 70.17 69.50 70.32 71.04 70.62 70.36 70.41 69.72 69.56 70.29 70.59 70.84 70.80 70.74 71.29 71.61 71.21 70.02 69.81 70.60 70.68 71.76 72.03 73.36
62.12 63.58 65.80 68.53 71.04 72.97 73.93 73.05 72.05 70.94 70.80 70.49 70.97 71.69 72.62 73.02 72.90 72.20 69.62 69.44 70.02 70.36 70.10 69.51 69.99 69.69 69.49 69.99 70.71 71.18 71.40 71.48 71.65 72.09 71.95 70.27 70.34 71.73 71.26 71.88 72.30 72.28 72.66
61.59 62.35 63.18 65.39 69.55 72.31 73.08 72.76 72.82 73.48 71.64 70.38 70.49 69.38 71.33 71.32 71.24 71.41 69.51 69.97 71.19 68.72 69.54 69.67 70.14 70.66 69.71 70.97 71.19 71.46 71.77 71.22 71.60 71.63 71.84 71.66 72.72 72.52 72.80 72.03 71.32 71.30 71.99
62.77 64.88 64.07 63.96 67.72 72.34 72.60 73.02 71.52 70.63 70.85 70.74 70.09 70.19 71.39 71.29 70.88 71.16 70.09 71.25 69.92 69.02 69.08 69.66 71.52 70.59 71.65 71.55 71.37 71.17 71.09 71.32 71.53 71.83 71.93 72.00 72.42 72.96 73.45 73.71 73.24 71.50 70.65
61.17 62.81 64.21 64.38 67.18 68.53 70.59 68.88 70.41 70.75 71.65 70.63 71.10 71.49 71.49 71.26 70.85 72.10 69.73 70.87 71.03 69.47 68.07 69.90 70.50 70.64 71.42 72.15 70.49 70.35 70.34 71.51 71.61 71.67 72.18 72.20 72.17 72.46 72.89 72.94 73.66 71.76 71.19
60.53 61.85 62.11 63.48 65.01 65.72 67.21 72.02 72.07 72.27 71.85 72.62 72.10 72.10 71.81 70.84 72.13 72.52 72.26 71.50 71.74 69.19 71.22 71.15 71.91 71.13 71.65 72.22 69.35 69.11 66.68 69.15 70.67 71.44 71.88 71.94 72.38 72.25 72.12 72.75 72.62 72.41 72.31
58.95 59.90 60.83 62.40 63.48 64.94 65.77 66.59 69.24 70.51 71.19 71.44 72.49 72.26 72.57 71.69 72.50 73.42 72.83 72.45 71.70 70.81 71.08 72.18 72.67 72.36 70.23 71.33 71.58 69.10 66.41 64.45 68.78 70.53 71.23 71.31 71.91 71.44 71.38 71.73 72.08 72.07 72.24
58.17 59.05 60.75 62.02 63.25 63.68 65.04 65.79 68.49 67.41 68.12 69.40 71.69 72.98 73.74 72.71 71.88 72.75 74.23 72.01 72.60 71.52 73.89 73.59 73.38 73.44 72.19 70.39 70.16 69.79 71.82 70.40 65.83 64.72 68.60 69.97 71.08 70.78 71.30 70.44 70.76 71.18 71.31
57.97 58.91 60.35 61.86 62.57 63.25 64.95 65.54 64.35 66.54 65.80 67.33 69.57 74.76 76.20 75.90 73.48 72.40 74.50 74.39 74.59 72.84 74.64 74.85 74.12 73.46 72.67 71.00 69.75 69.72 70.45 69.63 69.90 66.88 63.96 65.62 68.54 69.55 70.04 70.54 70.07 69.74 70.67
57.79 59.27 60.43 61.00 62.08 63.13 63.71 64.24 64.78 64.91 66.26 65.86 67.99 69.80 71.80 73.76 74.09 74.69 74.22 75.12 75.01 74.99 74.65 74.57 75.00 73.63 72.38 72.00 71.56 71.47 69.88 68.57 67.59 67.19 64.56 66.76 66.42 68.14 69.34 69.42 69.25 69.19 69.77

GFSSE_sfc_wetblb_075.txt.gz
Wetbulb
74.15 75.45 77.47 77.67 78.02 78.50 78.56 77.80 77.50 77.42 77.14 77.14 77.12 77.14 77.12 77.06 77.14 77.14 76.46 76.24 76.24 75.67 75.09 74.55 74.08 73.47 72.12 71.01 70.34 71.09 72.20 73.31 73.87 74.09 74.25 74.20 74.24 74.26 73.82 73.39 73.58 72.28 73.76
75.17 75.16 77.17 77.17 77.77 78.20 78.43 77.95 77.40 77.25 76.97 77.17 77.30 77.14 77.06 77.16 77.22 76.97 76.52 75.79 75.53 74.95 73.70 72.65 71.52 70.23 69.04 67.95 67.56 68.52 69.71 70.99 72.53 72.96 73.49 73.97 74.20 73.49 73.29 73.28 73.41 72.84 72.84
75.47 75.38 76.58 76.87 77.57 78.15 78.28 77.92 77.52 77.22 77.14 76.99 77.14 76.99 77.21 77.26 77.17 76.69 76.26 75.31 74.65 73.71 72.23 70.85 69.63 68.57 67.66 67.22 66.62 66.46 67.02 68.02 67.84 68.93 72.32 73.55 70.97 72.75 72.93 73.13 73.12 72.43 72.39
76.23 75.71 75.36 76.62 77.12 77.72 77.84 77.59 77.33 77.34 77.19 77.01 77.01 77.22 77.31 77.16 76.86 76.29 75.66 74.62 73.78 72.42 71.01 69.82 69.17 68.63 68.46 67.94 67.56 66.83 66.54 66.51 67.73 69.52 70.46 70.70 71.06 72.13 72.54 73.15 72.89 72.00 71.75
75.94 75.90 75.51 76.44 76.57 77.27 77.69 77.56 77.33 77.20 77.36 77.36 77.21 77.24 77.24 76.91 76.48 75.91 75.26 74.53 73.05 71.59 70.40 69.67 69.41 69.49 69.10 68.45 68.32 68.22 68.29 69.14 69.33 69.56 71.36 71.67 72.03 71.73 72.11 72.16 72.50 72.12 71.50
74.47 75.90 76.04 76.01 76.14 76.82 77.09 77.20 77.20 77.33 77.30 77.36 77.39 77.29 77.06 76.68 76.08 75.45 75.09 74.26 73.32 71.70 70.62 70.41 70.28 69.82 69.36 68.95 68.82 69.01 69.36 70.66 71.31 72.91 71.78 70.34 71.94 72.62 72.13 71.67 71.86 71.82 71.78
73.71 75.47 76.86 75.96 75.91 76.36 76.69 76.51 76.70 76.90 76.97 77.08 77.18 77.01 76.83 76.28 75.63 74.88 74.49 73.70 73.17 72.49 71.61 71.01 70.76 70.82 70.52 69.64 69.75 69.64 69.84 70.57 71.05 72.30 71.73 71.94 72.56 72.58 71.56 71.96 71.66 71.68 71.80
73.51 75.18 77.43 75.70 75.81 75.74 76.06 76.04 75.78 75.97 76.24 76.60 76.68 76.35 76.05 75.48 74.91 74.46 73.96 73.75 73.53 73.15 72.75 71.90 71.56 71.26 71.37 70.32 70.27 70.34 70.68 70.67 71.62 70.45 70.73 71.26 70.80 71.35 71.23 71.31 71.85 71.73 71.47
73.70 74.22 77.41 75.54 76.25 76.04 75.91 75.80 75.67 75.50 75.32 75.47 75.34 75.24 75.25 74.93 74.48 73.96 73.59 73.54 73.53 73.22 73.10 72.79 72.33 71.56 71.14 70.57 70.49 70.73 70.75 70.94 70.44 70.89 69.47 69.78 70.66 70.61 71.43 71.22 71.85 71.61 71.10
72.56 73.28 76.37 75.01 75.40 75.44 75.43 76.23 75.77 75.64 75.66 75.26 75.29 75.12 74.91 74.75 74.06 73.61 73.06 73.19 73.24 73.38 73.23 73.04 72.64 71.90 71.25 70.96 70.93 71.01 70.88 71.10 69.51 69.07 69.85 71.18 71.57 70.30 70.69 71.94 71.80 71.53 71.21
70.90 72.73 74.95 74.21 74.62 74.79 74.25 75.59 75.66 75.61 75.38 75.17 74.81 75.05 74.16 71.94 73.10 72.56 71.60 72.97 73.39 73.26 73.19 73.04 72.92 72.40 71.16 70.64 71.04 70.76 70.60 69.26 68.80 70.04 69.44 71.41 70.56 70.01 70.98 71.80 72.13 71.95 71.46
69.53 71.31 73.04 73.84 74.32 74.22 72.89 75.32 75.05 74.48 74.36 73.79 73.36 73.91 73.32 72.65 73.69 72.15 72.87 73.30 73.21 73.24 73.24 73.09 72.99 72.03 70.91 68.23 69.74 70.41 69.24 68.19 68.16 69.58 69.56 71.85 70.16 70.02 71.12 71.68 72.20 72.19 72.39
69.41 70.50 71.56 74.88 76.94 74.13 72.68 73.28 74.35 73.30 73.39 74.14 74.53 75.62 75.36 73.09 73.57 73.17 72.83 72.02 72.19 71.89 69.87 71.18 70.79 70.12 69.19 69.00 69.02 70.28 70.69 70.29 69.51 69.58 72.29 72.35 70.86 70.48 71.11 71.97 72.10 72.98 73.16
69.51 69.04 70.81 73.39 75.44 76.89 73.88 72.69 74.07 72.70 73.73 73.53 73.73 77.51 76.60 74.06 75.97 76.02 72.77 73.22 73.57 71.73 71.68 71.30 70.62 72.25 71.30 70.82 70.51 69.88 69.42 69.69 69.38 69.09 71.65 72.31 71.67 71.24 71.52 71.95 72.27 73.10 73.34
67.27 70.14 69.82 72.27 75.29 76.16 77.65 74.25 74.43 74.49 72.83 73.80 74.18 76.24 75.21 74.65 76.06 74.86 74.93 72.60 73.02 71.92 71.37 71.00 70.54 71.23 70.60 71.04 70.67 70.32 70.03 70.51 70.34 69.55 69.54 72.59 71.73 71.61 71.94 72.43 72.72 72.80 72.88
68.26 68.80 71.17 70.82 75.56 74.78 75.58 77.56 76.78 76.75 74.64 73.82 73.96 75.06 77.45 75.68 77.01 73.91 73.82 72.50 71.69 71.06 70.17 70.28 70.78 70.65 71.15 71.19 70.93 70.82 71.38 71.64 71.25 70.95 69.72 70.57 71.26 71.19 71.11 71.06 72.51 73.04 73.31
66.03 68.32 69.29 71.45 74.20 74.76 75.41 75.03 75.70 73.87 74.10 73.65 73.61 77.66 76.89 77.31 77.67 76.18 72.69 72.43 71.37 72.27 73.02 72.40 71.96 71.55 70.41 71.07 71.18 71.25 71.61 72.20 71.70 71.66 71.25 71.70 71.64 70.72 70.90 71.36 71.68 72.69 73.17
62.92 63.24 67.11 69.44 71.51 74.70 74.71 74.35 73.45 72.91 73.45 72.78 73.28 74.00 76.03 77.17 77.19 76.45 72.36 71.52 71.78 71.37 70.42 70.88 70.82 70.56 71.04 71.38 71.96 71.78 72.77 73.49 72.94 72.85 72.36 72.81 71.77 70.50 70.67 71.07 71.44 72.40 73.14
62.09 63.56 64.23 67.81 69.16 72.44 75.16 74.17 74.66 75.01 72.91 71.57 72.35 71.31 74.10 74.48 74.72 75.01 72.68 71.95 74.76 70.69 71.51 71.70 71.46 71.79 71.81 70.74 71.69 73.16 73.63 72.69 73.42 72.09 73.47 73.75 72.88 71.72 72.62 71.10 71.68 72.34 72.18
62.76 64.65 65.62 66.94 68.20 69.63 73.42 74.58 73.86 72.88 72.67 72.90 71.98 71.77 73.78 73.01 72.72 72.40 71.93 72.69 73.31 70.86 71.31 72.01 72.46 71.85 72.06 72.29 71.50 72.11 73.98 73.45 73.04 73.00 73.08 72.44 72.88 73.48 73.66 72.65 72.65 72.15 71.38
62.29 63.88 64.12 64.66 67.54 68.23 69.37 70.90 71.40 70.73 72.04 71.70 72.29 73.52 74.02 73.41 72.27 73.28 71.17 72.42 73.10 71.39 70.73 74.12 73.35 73.14 70.82 72.97 71.23 71.26 71.82 74.17 72.59 72.56 73.55 72.15 72.62 72.12 73.13 73.72 71.71 72.57 71.56
61.49 62.68 62.39 62.62 65.20 66.96 68.25 70.91 70.93 72.88 73.62 73.15 72.81 73.40 74.20 73.40 74.76 73.93 71.29 71.28 73.06 71.31 73.36 74.52 73.71 70.84 71.29 73.19 70.48 69.65 66.70 69.58 71.93 71.77 72.37 71.60 73.42 72.41 72.42 71.17 71.98 72.93 70.13
59.24 60.42 61.53 62.68 64.51 65.80 66.69 67.22 68.63 70.98 72.04 71.37 72.74 73.96 73.65 73.32 73.50 73.04 71.77 71.18 73.30 72.60 72.54 73.57 73.59 72.14 69.72 72.74 74.63 69.96 65.79 64.99 68.45 71.33 72.35 72.35 73.53 71.86 72.11 71.06 71.65 71.86 72.62
58.01 59.51 60.85 62.83 63.55 65.07 68.60 67.18 69.42 66.32 65.42 67.84 69.15 71.94 73.44 74.92 73.10 73.18 73.51 71.86 73.58 74.18 72.53 74.47 73.61 74.35 74.30 70.63 72.32 72.00 72.57 71.53 66.97 65.08 70.87 71.62 72.17 71.91 73.38 70.90 72.48 71.78 72.34
57.61 58.98 60.78 62.60 63.80 64.70 66.97 67.65 65.15 66.77 64.53 66.93 68.88 71.39 73.83 77.14 73.81 72.68 74.26 73.12 74.00 73.18 72.06 74.71 76.72 74.72 73.92 72.57 71.55 70.95 70.88 69.90 71.52 68.11 66.20 66.26 70.68 70.36 70.44 70.85 70.36 69.81 70.34
58.05 58.75 60.64 61.59 62.81 64.12 64.71 66.15 66.91 66.39 67.18 65.66 67.42 68.93 69.62 70.60 72.03 72.30 73.69 73.92 74.58 72.85 73.49 75.39 76.72 74.11 73.45 74.76 73.43 73.17 69.91 68.83 68.28 68.11 66.07 68.15 67.38 69.56 69.23 71.01 69.44 69.74 70.29